Ask Your Question

alexanderwerner's profile - karma

alexanderwerner's karma change log

2 0 Changed by moderator. Reason: Compensated by admin during recalculation of karma ( 2016-01-16 11:04:35 +0200 )

15 0 I want to make a tax deductible donation. ( 2013-02-24 23:19:50 +0200 )

15 0 Why no link to the FAQ? ( 2013-02-16 10:25:08 +0200 )

10 0 I want to make a tax deductible donation. ( 2013-01-26 19:53:26 +0200 )

10 0 I want to make a tax deductible donation. ( 2013-01-26 17:52:04 +0200 )

10 0 Why aren't spammers banned immediately? ( 2013-01-16 06:47:17 +0200 )

10 0 Why aren't spammers banned immediately? ( 2013-01-15 20:04:38 +0200 )

15 0 Why aren't spammers banned immediately? ( 2013-01-15 17:00:58 +0200 )

2 0 can i sell software that uses Libre Office ( 2012-12-11 00:04:23 +0200 )

2 0 Why LibreOffice is not using the Stack Exchange platform for Q&A? ( 2012-12-11 00:04:06 +0200 )

2 0 Deleting files ( 2012-11-09 12:44:26 +0200 )

2 0 How to convert every hyphen/dash between numbers to en-dash? ( 2012-11-02 10:22:00 +0200 )

2 0 Is LibreOffice available for Android? ( 2012-10-01 18:39:06 +0200 )

2 0 Libreoffice 3.6.0 always crash after install. Why? ( 2012-10-01 18:36:21 +0200 )

2 0 Import Corel Draw ( 2012-09-04 12:19:28 +0200 )

0 -1 Would a foss alternative to onenote be on the cards? ( 2012-09-04 11:42:14 +0200 )

0 -1 Paste hangs LibreOffice Calc ( 2012-07-30 02:08:44 +0200 )

2 0 Paste hangs LibreOffice Calc ( 2012-07-30 02:08:41 +0200 )

1 0 Paste hangs LibreOffice Calc ( 2012-07-30 02:08:39 +0200 )

0 -1 Paste hangs LibreOffice Calc ( 2012-07-30 02:08:36 +0200 )

0 -1 Libre Excel read only. ( 2012-07-30 02:08:16 +0200 )

0 -1 Libre Excel read only. ( 2012-07-30 02:08:04 +0200 )

0 -1 Libre Excel read only. ( 2012-07-30 02:08:03 +0200 )

2 0 Paste unformatted text default option ( 2012-07-30 02:06:34 +0200 )

2 0 Change default printer language type to PostScript (Level from driver) ( 2012-07-30 02:05:33 +0200 )

2 0 LO3.5.3 Writer Spell Check doesn't work ( 2012-07-30 02:03:56 +0200 )

2 0 Where it is possible to find plugin developers? ( 2012-07-30 02:00:06 +0200 )

2 0 Setting up the original template document ( 2012-07-30 01:59:52 +0200 )

2 0 Link to style xx fails ( 2012-07-30 01:58:37 +0200 )

2 0 is there anyway to get the maths functions to treat a non-numeric as 0? Like open office does. ( 2012-07-30 01:58:11 +0200 )

2 0 converting perfect works data files ( 2012-07-30 01:56:32 +0200 )

2 0 Can I have continuous coloring of cells by conditional formatting? ( 2012-07-30 01:56:20 +0200 )

2 0 Will Writer allow embedding a colour palette in the future? ( 2012-07-30 01:56:09 +0200 )

2 0 database backup ( 2012-07-30 01:55:37 +0200 )

2 0 how to make diffrent column style in same page ( 2012-07-30 01:55:22 +0200 )

2 0 How can I export .ods files with conditional formatting without losing most of it? ( 2012-07-30 01:54:56 +0200 )

2 0 Is there a polynomial curve fit function(s) in Calc ? ( 2012-07-30 01:54:23 +0200 )

2 0 How can I put two data series with different categories in one chart? ( 2012-07-30 01:53:33 +0200 )

2 0 How can I set Evolution as my default email client in LibreOffice? ( 2012-07-30 01:52:49 +0200 )

2 0 Why does applying a style keep the old formatting? ( 2012-07-30 01:51:36 +0200 )

2 0 Installation on Fedora 14 system fails. ( 2012-07-30 01:50:38 +0200 )

2 0 How to change page settings? ( 2012-07-30 01:50:27 +0200 )

2 0 Using predefined document styles in writer ( 2012-07-30 01:49:44 +0200 )

2 0 Hardware Acceleration Disabled by default? --> snappier LO ( 2012-07-30 01:49:18 +0200 )

2 0 Overview of LibreOffice in form of diagrams or architecture ( 2012-07-30 01:48:47 +0200 )

2 0 Where can I find valid installers/report corrupt ones for Mac OSX? ( 2012-07-30 01:48:38 +0200 )

2 0 Edit data labels in x-axis (interval) ( 2012-07-30 01:47:57 +0200 )

2 0 Will LibreOffice read my microsoft documents & spreadsheets? ( 2012-07-30 01:46:49 +0200 )

2 0 3.5 Won't Run! ( 2012-07-27 12:47:27 +0200 )

2 0 can't start libreoffice3.5 portable on xp sp3 ( 2012-07-27 12:45:42 +0200 )

2 0 How to change a list style's bullet char? ( 2012-07-27 12:45:25 +0200 )

2 0 How to change styles order? ( 2012-07-27 12:45:05 +0200 )

2 0 What's the best ODF Validator? ( 2012-07-27 12:44:52 +0200 )

2 0 Can I get syntax highlighting for javacode, bash, etc. in Writer? ( 2012-07-27 12:44:13 +0200 )

2 0 3.5 shows Avery file labels as a single column not 2, can it be fixed? ( 2012-07-27 12:43:59 +0200 )

2 0 OpenOffice customizations propagated to LibreOffice? ( 2012-07-27 12:40:24 +0200 )

2 0 Why Word 14 doesn't open Writer 3.5 files? ( 2012-07-27 12:39:52 +0200 )

2 0 how to retrieve personal templates ( 2012-07-27 12:37:23 +0200 )

2 0 Any way to speed up database search? ( 2012-07-27 12:36:51 +0200 )

2 0 Spell check breaks between Windows and Linux LO installs ( 2012-07-27 12:35:30 +0200 )

2 0 Which GUI toolkit is used by LO? ( 2012-07-27 12:35:20 +0200 )

2 0 Extension Manager Disable or Remove ( 2012-07-27 12:35:08 +0200 )

2 0 How well does MS Word 2010 render ODT files saved in LibreOffice? ( 2012-07-27 12:34:22 +0200 )

2 0 No preview panel with two monitors with Impress ( 2012-07-27 12:34:04 +0200 )

2 0 How to change datasource in form letter / mail merge imported from MS-Word ( 2012-07-27 12:32:59 +0200 )

2 0 How to get any version of libreoffice to install to opt\libreoffice\program? ( 2012-07-27 12:29:47 +0200 )

2 0 Disable Date Formatting in Calc ( 2012-07-27 12:29:24 +0200 )

2 0 Why nobody from LibreOffice answers unanswered questions ( 2012-07-27 12:28:27 +0200 )

2 0 Security patches for LibreOffice ( 2012-07-27 12:27:49 +0200 )

0 -1 Security patches for LibreOffice ( 2012-07-27 12:27:37 +0200 )

2 0 combine text and image objects? ( 2012-07-27 12:27:06 +0200 )

2 0 does LibreOffice work with iPad? ( 2012-07-27 12:25:44 +0200 )

2 0 Error loading BASIC of document file ( 2012-07-27 12:24:16 +0200 )

2 0 3.5 corrupted cab ( 2012-07-27 12:16:40 +0200 )

2 0 Where do I find the PDF import extension? ( 2012-07-27 12:16:26 +0200 )

2 0 If only LO Writer table could allow copy paste of formula? ( 2012-07-27 12:15:26 +0200 )

2 0 Writer 3.5 keeps crashing ( 2012-07-27 12:14:34 +0200 )

2 0 I have mis- set something = Calc will not perform calculations! Formulas do not work! ( 2012-07-27 12:13:06 +0200 )

2 0 Why does F1 still take me to the web after installing resident help file? ( 2012-07-27 12:12:26 +0200 )

2 0 Recent Documents still not working in 3.5.1 ( 2012-07-27 12:12:05 +0200 )

2 0 Download speed ( 2012-07-27 12:11:32 +0200 )

2 0 LibreOffice 3.5 fails to install ( 2012-07-27 12:10:27 +0200 )

2 0 What video formats does LibreOffice Impress support? ( 2012-07-27 12:06:46 +0200 )

0 -1 How to embed PDF file in Writer? ( 2012-06-23 08:14:04 +0200 )

15 0 Meta: upload images ( 2012-06-20 17:47:51 +0200 )

10 0 Meta: upload images ( 2012-06-18 13:03:14 +0200 )

10 0 Meta: upload images ( 2012-06-18 12:55:40 +0200 )

10 0 Why no link to the FAQ? ( 2012-04-16 10:38:57 +0200 )

10 0 Why no link to the FAQ? ( 2012-04-16 10:32:43 +0200 )

2 0 Would a foss alternative to onenote be on the cards? ( 2012-03-30 15:16:56 +0200 )

2 0 bug on CSV import? ( 2012-03-30 15:16:16 +0200 )

0 -1 Charts in presentations are not handled well. ( 2012-03-30 15:15:28 +0200 )

2 0 Charts in presentations are not handled well. ( 2012-03-30 15:15:09 +0200 )

2 0 How to insert a Formula/Math? ( 2012-03-30 15:14:24 +0200 )

2 0 Can't open .xlsx in Calc ( 2012-03-30 15:13:28 +0200 )

2 0 What could prevent the small formula window from working in LibO 3.5? ( 2012-03-30 15:12:57 +0200 )

2 0 Is it possible setup automatic update? ( 2012-03-30 15:12:02 +0200 )

2 0 Error creating new document:templates already exist ( 2012-03-30 15:08:42 +0200 )

2 0 Will there be "Tabbing" navigation support in a future version? ( 2012-03-30 15:06:38 +0200 )

2 0 visual basic to calc ( 2012-03-30 15:06:18 +0200 )